Waarnemingen

Advertentie
Mijn weer
Hoburg A, Zweden (2679): temperatuur & dauwpunt: 22.10.2020 01:00:00 - 28.10.2020 01:00:00 (CET)Hoburg A, Zweden (2679): windsnelheid & windstoten: 22.10.2020 01:00:00 - 28.10.2020 01:00:00 (CET)Hoburg A, Zweden (2679): windrichting: 22.10.2020 01:00:00 - 28.10.2020 01:00:00 (CET)Hoburg A, Zweden (2679): luchtdruk: 22.10.2020 01:00:00 - 28.10.2020 01:00:00 (CET)Hoburg A, Zweden (2679): zicht: 22.10.2020 01:00:00 - 28.10.2020 01:00:00 (CET)Hoburg A, Zweden (2679): neerslag: 22.10.2020 01:00:00 - 28.10.2020 01:00:00 (CET)
Datum & Tijd tt [°C] td [°C] ff [km/u] ff [kn] fx [km/u] fx [kn] dd ppp [hPa] vv [km] rr [mm]
28.10.2020 01:00:00 8,7 7,1 21 11 34 18 ZW 1006,2 50 0,8
28.10.2020 00:00:00 9,3 7,6 27 14 38 20 ZW 1006,4 19 0,0
27.10.2020 23:00:00 8,8 6,6 26 14 46 25 WZW 1006,2 48 0,1
27.10.2020 22:00:00 9,6 7,9 32 17 46 25 WZW 1006,1 5 0,4
27.10.2020 21:00:00 10,9 8,8 34 18 44 24 ZZW 1006,1 33 0,0
27.10.2020 20:00:00 10,8 8,9 26 14 37 20 ZZW 1006,0 30 0,0
27.10.2020 19:00:00 10,7 8,8 27 14 36 19 ZZW 1006,1 43 0,0
27.10.2020 18:00:00 10,8 8,7 26 14 34 18 ZW 1006,1 35 0,0
27.10.2020 17:00:00 10,8 8,9 24 13 36 19 ZZW 1005,9 34 0,0
27.10.2020 16:00:00 10,9 8,8 27 15 38 21 ZZW 1006,4 27 0,0
27.10.2020 15:00:00 11,2 9,1 25 13 36 19 ZZW 1006,1 46 0,0
27.10.2020 14:00:00 11,2 9,3 19 10 28 15 ZZW 1005,9 43 0,0
27.10.2020 13:00:00 11,3 9,6 20 11 29 15 ZW 1006,1 37 0,0
27.10.2020 12:00:00 11,4 10,1 21 12 29 16 ZZW 1006,1 28 0,0
27.10.2020 11:00:00 11,4 10,1 21 11 28 15 ZZW 1005,9 50 0,0
27.10.2020 10:00:00 11,3 9,6 19 10 25 14 ZZW 1005,8 50 0,0
27.10.2020 09:00:00 11,1 9,7 13 7 18 10 ZZW 1005,1 50 0,0
27.10.2020 08:00:00 10,3 9,4 10 5 16 9 ZW 1004,5 50 0,0
27.10.2020 07:00:00 10,2 8,6 14 8 21 11 W 1004,1 21 0,0
27.10.2020 06:00:00 10,2 9,0 5 3 22 12 N 1002,9 50 0,0
27.10.2020 05:00:00 10,7 9,8 15 8 21 12 WZW 1002,4 9 0,0
27.10.2020 04:00:00 11,1 10,2 16 9 25 13 ZW 1002,2 4,7 0,0
27.10.2020 03:00:00 11,1 10,3 16 9 25 14 ZZW 1002,3 3,8 0,0
27.10.2020 02:00:00 11,1 10,3 17 9 30 16 ZZW 1002,5 3,2 0,0
27.10.2020 01:00:00 11,2 10,3 23 12 31 17 Z 1001,9 4,3 0,0
27.10.2020 00:00:00 11,1 10,2 16 9 26 14 Z 1002,5 4,2 0,0
26.10.2020 23:00:00 11,1 10,2 14 7 22 12 Z 1002,8 4,4 0,0
26.10.2020 22:00:00 11,0 10,1 16 9 22 12 ZZO 1002,9 4,9 0,0
26.10.2020 21:00:00 11,1 9,8 15 8 26 14 Z 1003,7 6 0,0
26.10.2020 20:00:00 11,1 10,2 19 11 27 15 Z 1004,2 4,7 0,0
26.10.2020 19:00:00 11,0 10,1 18 10 24 13 ZZO 1004,3 4,9 0,0
26.10.2020 18:00:00 11,0 10,2 15 8 22 12 ZZO 1004,6 4,5 0,0
26.10.2020 17:00:00 11,0 10,4 16 9 21 11 ZZO 1004,3 3,4 0,0
26.10.2020 16:00:00 10,9 10,1 16 9 22 12 ZZO 1004,4 3,2 0,0
26.10.2020 15:00:00 11,1 10,2 15 8 21 12 Z 1004,6 4,0 0,0
26.10.2020 14:00:00 11,2 10,1 15 8 - - Z 1004,7 4,7 0,0
26.10.2020 13:00:00 11,3 10,2 18 10 24 13 ZZW 1005,4 6 0,0
26.10.2020 12:00:00 11,4 10,3 17 9 26 14 Z 1004,9 5 0,0
26.10.2020 11:00:00 11,3 10,2 21 11 31 17 ZZW 1004,5 6 0,0
26.10.2020 10:00:00 11,4 10,3 24 13 37 20 ZZW 1004,4 6 0,0
26.10.2020 09:00:00 11,4 10,5 25 14 39 21 Z 1004,0 5 0,0
26.10.2020 08:00:00 11,2 10,4 25 14 37 20 Z 1003,9 4,6 0,0
26.10.2020 07:00:00 11,3 10,7 26 14 37 20 Z 1004,0 4,6 0,0
26.10.2020 06:00:00 11,3 10,5 26 14 36 19 Z 1004,0 5 0,0
26.10.2020 05:00:00 11,3 10,5 25 13 37 20 Z 1003,5 4,0 0,0
26.10.2020 04:00:00 11,5 10,7 28 15 37 20 Z 1003,9 6 0,0
26.10.2020 03:00:00 11,5 10,7 29 16 38 21 Z 1003,7 5 0,0
26.10.2020 02:00:00 11,8 10,7 28 15 41 22 Z 1004,3 7 0,0
26.10.2020 01:00:00 12,0 10,4 30 16 42 23 Z 1004,4 12 0,0
26.10.2020 00:00:00 12,0 10,7 29 16 41 22 Z 1005,0 16 0,0
25.10.2020 23:00:00 11,9 10,6 28 15 37 20 Z 1005,3 18 0,0
25.10.2020 22:00:00 11,9 10,5 26 14 38 20 Z 1005,7 25 0,0
25.10.2020 21:00:00 12,0 10,2 28 15 37 20 Z 1005,7 42 0,0
25.10.2020 20:00:00 11,9 10,6 24 13 32 18 Z 1005,8 42 0,0
25.10.2020 19:00:00 12,0 10,4 26 14 34 18 Z 1006,0 39 0,0
25.10.2020 18:00:00 11,9 10,3 25 14 36 19 Z 1006,1 36 0,0
25.10.2020 17:00:00 11,8 10,2 28 15 38 21 Z 1006,1 35 0,0
25.10.2020 16:00:00 11,7 10,1 29 16 44 24 Z 1006,1 33 0,0
25.10.2020 15:00:00 12,0 10,4 29 15 41 22 Z 1006,1 32 0,0
25.10.2020 14:00:00 12,1 10,8 27 15 37 20 Z 1006,5 25 0,0
25.10.2020 13:00:00 12,1 11,0 24 13 34 18 Z 1006,6 18 0,0
25.10.2020 12:00:00 12,0 11,2 25 13 34 19 Z 1007,2 15 0,0
25.10.2020 11:00:00 12,0 11,2 24 13 32 17 Z 1007,5 14 0,0
25.10.2020 10:00:00 12,0 11,4 27 14 38 21 Z 1007,8 13 0,0
25.10.2020 09:00:00 11,8 11,3 25 13 34 18 Z 1007,9 10 0,0
25.10.2020 08:00:00 11,6 11,1 23 12 32 17 Z 1008,4 7 0,0
25.10.2020 07:00:00 11,3 10,8 22 12 29 15 Z 1008,4 9 0,0
25.10.2020 06:00:00 10,8 10,3 18 10 24 13 Z 1008,6 10 0,0
25.10.2020 05:00:00 10,2 9,7 17 9 22 12 Z 1009,1 17 0,0
25.10.2020 04:00:00 9,8 9,3 13 7 17 9 ZZW 1009,3 11 0,0
25.10.2020 03:00:00 9,5 8,9 10 5 17 9 ZW 1009,4 13 0,0
25.10.2020 02:00:00 9,5 8,9 14 7 17 9 ZW 1009,5 29 0,0
25.10.2020 01:00:00 - - - - - - - - - -
25.10.2020 00:00:00 9,7 8,6 14 8 24 13 W 1009,3 34 0,0
24.10.2020 23:00:00 10,1 8,7 20 11 27 15 W 1009,1 50 0,0
24.10.2020 22:00:00 10,3 9,4 17 9 22 12 W 1008,8 23 0,0
24.10.2020 21:00:00 10,6 9,8 16 9 26 14 W 1008,3 17 0,0
24.10.2020 20:00:00 10,8 9,9 20 11 28 15 W 1008,1 23 0,0
24.10.2020 19:00:00 10,7 9,5 20 11 27 15 WZW 1007,5 40 0,0
24.10.2020 18:00:00 10,9 9,5 21 11 33 18 W 1007,0 38 0,0
24.10.2020 17:00:00 11,4 9,5 24 13 32 17 W 1006,3 46 0,0
24.10.2020 16:00:00 11,3 9,9 20 11 31 17 WZW 1005,6 23 0,0
24.10.2020 15:00:00 11,9 9,8 24 13 31 17 WZW 1005,2 27 0,0
24.10.2020 14:00:00 11,7 10,3 19 10 32 18 WZW 1005,0 10 0,0
24.10.2020 13:00:00 12,8 11,0 24 13 35 19 W 1004,8 8 0,0
24.10.2020 12:00:00 12,9 11,8 25 13 41 22 WZW 1004,6 10 0,0
24.10.2020 11:00:00 11,6 10,8 29 16 45 24 ZW 1004,6 12 0,1
24.10.2020 10:00:00 10,8 9,9 26 14 44 24 ZZW 1004,8 13 0,9
24.10.2020 09:00:00 10,7 9,8 27 15 35 19 ZZW 1005,3 9 0,4
24.10.2020 08:00:00 10,8 9,7 22 12 31 17 ZZW 1005,4 25 0,0
24.10.2020 07:00:00 10,5 8,8 22 12 30 16 ZZW 1005,6 50 0,0
24.10.2020 06:00:00 10,0 7,2 17 9 24 13 ZZW 1005,9 50 0,0
24.10.2020 05:00:00 9,1 6,9 13 7 17 9 ZZW 1006,2 50 0,0
24.10.2020 04:00:00 8,4 6,0 11 6 16 9 ZW 1006,6 50 0,0
24.10.2020 03:00:00 8,7 5,4 12 6 18 10 WZW 1007,0 50 0,0
24.10.2020 02:00:00 9,2 5,6 14 8 19 11 W 1007,2 50 0,0
24.10.2020 01:00:00 8,6 4,6 12 6 18 10 W 1007,2 50 0,0
24.10.2020 00:00:00 8,8 4,6 12 7 21 11 W 1007,1 50 0,0
23.10.2020 23:00:00 9,4 4,6 16 9 21 11 W 1007,4 50 0,0
23.10.2020 22:00:00 9,3 5,1 15 8 28 15 W 1007,3 50 0,0
23.10.2020 21:00:00 9,7 5,7 19 11 24 13 WNW 1007,2 50 0,0
23.10.2020 20:00:00 9,9 6,1 17 9 29 16 W 1007,2 50 0,0
23.10.2020 19:00:00 10,1 6,4 21 11 29 15 W 1007,3 50 0,0
23.10.2020 18:00:00 10,1 6,4 19 10 31 17 W 1006,7 49 0,0
23.10.2020 17:00:00 10,4 6,7 18 10 24 13 W 1006,7 44 0,0
23.10.2020 16:00:00 10,3 6,1 16 9 32 17 W 1006,4 47 0,0
23.10.2020 15:00:00 11,1 6,2 21 11 31 17 WNW 1005,8 50 0,0
23.10.2020 14:00:00 11,8 7,3 19 10 38 21 WNW 1005,5 50 0,0
23.10.2020 13:00:00 11,9 7,6 26 14 43 23 W 1005,2 50 0,0
23.10.2020 12:00:00 12,0 8,3 27 14 40 21 W 1004,6 50 0,0
23.10.2020 11:00:00 11,9 8,7 31 17 46 25 W 1004,1 50 0,0
23.10.2020 10:00:00 11,8 8,8 29 16 49 27 W 1003,5 50 0,0
23.10.2020 09:00:00 11,6 9,2 37 20 50 27 W 1002,8 50 0,0
23.10.2020 08:00:00 11,2 9,9 31 17 45 25 WZW 1002,3 9 0,3
23.10.2020 07:00:00 11,1 9,7 30 16 49 26 W 1001,8 20 0,1
23.10.2020 06:00:00 11,6 9,7 31 17 44 24 WZW 1001,3 9 0,0
23.10.2020 05:00:00 11,6 9,8 32 17 48 26 WZW 1001,2 26 0,0
23.10.2020 04:00:00 11,8 10,5 32 17 43 23 WZW 1001,2 17 0,0
23.10.2020 03:00:00 11,7 10,1 29 15 41 22 WZW 1001,6 23 0,0
23.10.2020 02:00:00 11,7 10,1 29 16 40 22 ZW 1002,1 26 0,0
23.10.2020 01:00:00 11,5 10,2 27 15 36 19 ZW 1002,8 18 0,0
23.10.2020 00:00:00 11,7 9,8 27 15 42 23 WZW 1003,3 29 0,0
22.10.2020 23:00:00 12,0 9,7 32 17 48 26 WZW 1003,7 28 0,0
22.10.2020 22:00:00 12,1 10,0 36 19 51 28 WZW 1003,7 26 0,0
22.10.2020 21:00:00 12,3 10,4 37 20 55 30 ZW 1003,8 23 0,0
22.10.2020 20:00:00 12,7 10,4 41 22 54 29 WZW 1004,0 24 0,0
22.10.2020 19:00:00 12,3 10,7 37 20 51 28 WZW 1004,0 21 0,0
22.10.2020 18:00:00 12,0 10,9 37 20 50 27 WZW 1003,9 16 0,0
22.10.2020 17:00:00 12,4 11,3 35 19 46 25 ZW 1003,9 15 0,0
22.10.2020 16:00:00 12,6 10,8 26 14 39 21 WZW 1003,7 44 0,0
22.10.2020 15:00:00 13,4 10,4 32 17 50 27 W 1002,9 47 0,0
22.10.2020 14:00:00 14,1 9,9 39 21 58 31 W 1002,1 47 0,0
22.10.2020 13:00:00 14,3 10,3 43 23 58 32 W 1001,1 45 0,0
22.10.2020 12:00:00 14,3 10,3 45 25 66 36 W 999,7 43 0,0
22.10.2020 11:00:00 13,6 10,9 46 25 72 39 W 997,5 50 0,0
22.10.2020 10:00:00 13,5 10,8 50 27 68 37 WZW 995,7 50 0,0
22.10.2020 09:00:00 13,2 11,4 49 26 66 35 WZW 994,7 27 0,0
22.10.2020 08:00:00 13,0 11,4 48 26 64 35 ZW 994,4 20 0,0
22.10.2020 07:00:00 13,2 11,3 41 22 59 32 ZW 994,6 24 0,0
22.10.2020 06:00:00 13,2 10,9 41 22 53 28 ZW 995,1 22 0,0
22.10.2020 05:00:00 12,9 10,8 34 18 46 25 ZW 995,9 22 0,0
22.10.2020 04:00:00 12,5 10,7 33 18 48 26 ZZW 996,7 18 0,0
22.10.2020 03:00:00 12,2 10,8 33 18 48 26 ZZW 997,7 16 0,0
22.10.2020 02:00:00 11,8 10,9 32 17 54 29 ZZW 998,8 7 0,0
22.10.2020 01:00:00 11,7 10,9 30 16 42 23 Z 1000,0 9 0,0

tt = temperatuur
td = dauwpunt
ff = windsnelheid
fx = windstoten
dd = windrichting
ppp = luchtdruk
vv = zicht
rr = neerslag

Weerstations in de omgeving